Regional Weather Roundup
Issued by NWS Wakefield, VA

Home | Current Version | Previous Version | Text Only | Print | Product List | Glossary On
Versions: 1 2 3 4 5 6 7 8 9 10 11 12 13 14 15 16 17 18 19 20 21 22 23 24 25 26 27 28 29 30 31 32 33 34 35 36 37 38 39 40 41 42 43 44 45 46 47 48 49 50
000
ASUS41 KAKQ 220115
RWRAKQ

REGIONAL WEATHER ROUNDUP
NATIONAL WEATHER SERVICE WAKEFIELD VA
900 PM EDT SAT OCT 21 2017

Note: "fair" indicates few or no clouds below 12,000 feet with no
significant weather and/or obstructions to visibility. * = Denotes
station may not report precipitation (e.g., rain,snow,etc.),
thunder or fog.

VAZ042-051-052>054-056-220200-
NORTHERN VIRGINIA

CITY           SKY/WX    TMP DP  RH WIND       PRES   REMARKS
WASH NATIONAL  MOCLDY    66  51  58 S3        30.36R
DULLES         CLOUDY    59  47  64 CALM      30.35S
FORT BELVOIR   PTCLDY    55  52  90 CALM      30.35S
QUANTICO       PTCLDY    60  55  83 NW5       30.36R
FREDERICKSBRG* PTCLDY    58  51  78 CALM      30.35S
STAFFORD*      PTCLDY    52  52 100 CALM      30.40S
WARRENTON      PTCLDY    51  43  72 CALM      30.35R
CULPEPER*      CLOUDY    55  48  77 CALM      30.36S
MANASSAS*      PTCLDY    53  50  89 CALM      30.36R
LEESBURG*      CLOUDY    59  50  72 CALM      30.36S
WINCHESTER     PTCLDY    55  46  71 CALM      30.34S
FRONT ROYAL*   CLOUDY    61  48  63 CALM      30.33S
LURAY*         PTCLDY    59  52  77 CALM      30.35R
$$

VAZ048-049-060>072-079>083-220200-
CENTRAL AND SOUTH CENTRAL VIRGINIA

CITY           SKY/WX    TMP DP  RH WIND       PRES   REMARKS
RICHMOND       CLOUDY    61  54  77 SE6       30.35S
CHESTERFIELD*  NOT AVBL
PETERSBURG*    CLOUDY    56  55  98 CALM      30.36R
HANOVER        CLOUDY    61  54  77 E3        30.36S
TAPPAHANNOCK*  CLOUDY    58  49  71 CALM      30.37R
QUINTON*       FAIR      60  59  98 MISG      30.35S
CHARLOTTSVILLE PTCLDY    64  55  72 CALM      30.34S
GORDONSVILLE*  PTCLDY    57  55  92 CALM      30.35S
ORANGE*        PTCLDY    54  52  94 CALM      30.35S
LOUISA*        CLOUDY    55  52  88 CALM      30.34S
BUMPASS*       FAIR      55  55  97 SW3       30.35R
FARMVILLE*     PTCLDY    64  56  75 CALM      30.34R
CREWE*         FAIR      58  58 100 CALM      30.35R
FORT PICKETT*  FAIR      60  60  98 S6        30.35S
CHASE CITY*    FAIR      60  54  79 CALM      30.34S
CLARKSVILLE*   FAIR      63  55  77 CALM      30.33F
SOUTH HILL*    CLOUDY    58  56  94 CALM      30.40S
LAWRENCEVILLE* FAIR      61  56  85 CALM      30.34S
EMPORIA*       CLOUDY    63  55  77 E6        30.36S
$$

VAZ088>098-220200-
SOUTHEAST VIRGINIA

CITY           SKY/WX    TMP DP  RH WIND       PRES   REMARKS
NORFOLK        CLOUDY    64  56  75 CALM      30.35F
VIRGINIA BEACH MOCLDY    59  53  80 SE3       30.35S
NORFOLK NAVAL  MOCLDY    61  54  77 CALM      30.37S
WEST POINT*    CLOUDY    56  55  94 CALM      30.38R
SALUDA*        FAIR      57  55  95 CALM      30.36S
NEWPORT NEWS   CLOUDY    57  55  93 CALM      30.36S
LANGLEY AFB    CLOUDY    60  56  88 CALM      30.36R
FORT EUSTIS    PTCLDY    61  53  75 CALM      30.34R
WILLIAMSBURG*  PTCLDY    61  57  88 CALM      30.37S
HR EXEC AP*    NOT AVBL
FRANKLIN*      CLOUDY    61  54  78 CALM      30.36S
US460-WAKEFLD  CLOUDY    59  56  89 CALM      30.36R
$$

VAZ020-022-025-037-045-220200-
WEST CENTRAL AND SOUTHWEST VIRGINIA

CITY           SKY/WX    TMP DP  RH WIND       PRES   REMARKS
STAUNTON*      CLOUDY    55  49  80 CALM      30.37S
WAYNESBORO*    PTCLDY    59  52  78 CALM      30.37R
HOT SPRINGS VA CLOUDY    58  45  62 CALM      30.42F
LYNCHBURG      CLOUDY    58  53  84 CALM      30.35S
DANVILLE       CLOUDY    60  32  34 CALM      30.34R
SOUTH BOSTON*  FAIR      61  53  75 CALM      30.34R
MARTINSVILLE   PTCLDY    56  53  91 CALM      30.37S
ROANOKE        MOCLDY    64  54  69 CALM      30.37S
BLACKSBURG     CLOUDY    62  52  69 SE5       30.40F
DUBLIN*        PTCLDY    61  52  71 CALM      30.38S
MARION*        CLOUDY    59  47  63 NE6       30.38S
HILLSVILLE*    CLOUDY    58  45  61 CALM      30.38S
RICHLANDS*     FAIR      63 -14   4 SE6       30.34S
WISE*          CLOUDY    64  43  45 CALM      30.33F
ABINGDON*      CLOUDY    64  48  56 CALM      30.32S
$$

MDZ021>025-VAZ099-100-220200-
SOUTHERN MARYLAND AND THE DELMARVA PENINSULA

CITY           SKY/WX    TMP DP  RH WIND       PRES   REMARKS
PATUXENT RIVER PTCLDY    53  49  86 CALM      30.36R
BAY BRIDGE APT CLOUDY    61  54  77 CALM      30.36S
LEONARDTOWN    NOT AVBL
DOVER          CLEAR     60  60 100 CALM      30.36S
GEORGETOWN     PTCLDY    58  50  75 CALM      30.38R
EASTON         MOCLDY    57  52  82 CALM      30.40R
CAMBRIDGE      CLEAR     55  50  82 CALM      30.37R
SALISBURY      PTCLDY    55  55 100 CALM      30.37S
OCEAN CITY     CLOUDY    55  55 100 CALM      30.38S
WALLOPS ISLAND PTCLDY    59  58  96 CALM      30.38R
ACCOMACK*      PTCLDY    57  56  97 CALM      30.37S
$$

NCZ012>017-030>032-220200-
NORTH CENTRAL AND EASTERN NORTH CAROLINA

CITY           SKY/WX    TMP DP  RH WIND       PRES   REMARKS
ROANOKE RAPIDS FAIR      59  59 100 CALM      30.34S
RALEIGH        CLOUDY    62  55  77 E3        30.34S
ELIZABETH CITY CLOUDY    64  59  83 NE5       30.36S
AHOSKIE*       CLOUDY    63  56  79 CALM      30.35S
EDENTON*       CLOUDY    64  59  86 CALM      30.36S
CURRITUCK*     CLOUDY    60  57  91 CALM      30.37S
KILL DEVIL HLS CLOUDY    65  54  67 CALM      30.35S
MANTEO         CLOUDY   N/A N/A N/A E3        30.36S
CAPE HATTERAS  PTCLDY    67  62  84 NE6       30.35R
TARBORO*       NOT AVBL
GOLDSBORO      CLOUDY    64  56  76 SE3       30.32R
WASHINGTON     CLOUDY    63  59  87 CALM      30.35S
GREENVILLE     CLOUDY    63  59  88 E3        30.35R
NEW BERN       PTCLDY    60  59  96 CALM      30.35S
WILMINGTON     CLOUDY    63  61  93 CALM      30.33R
$$

VAZ048-220200-
ELSEWHERE

CITY           SKY/WX    TMP DP  RH WIND       PRES   REMARKS
HARRISBURG PA  MOCLDY    60  52  74 E6        30.34R
BALTIMORE      CLOUDY    58  49  72 CALM      30.35S
ANNAPOLIS      CLOUDY    61  57  87 CALM      30.36R
ANDREWS AFB    PTCLDY    58  48  71 CALM      30.35S
PHILADELPHIA   MOCLDY    63  50  62 SW5       30.37R
HENDERSON NC   CLOUDY    64  52  65 SE3       30.34F
GREENSBORO     CLOUDY    63  56  78 CALM      30.33S
ROCKY MOUNT    CLOUDY    60  59  96 CALM      30.34S
$$

VAZ100-220200-
MARINE

STATION/POSITION TIME  TEMP    WIND        PRES    WAVE   SWELL
                       AIR SEA DIR/SP/G            HT/PER HT/PER
                 (UTC) (F)     (DEG/KT/KT) (MB)    (FT/S) (FT/S)
BRANDYWINE LGT   0042   67     170/ 10/ 10 1028.6S
CAPE MAY NJ      0048   63 66  140/  5/  6 1027.9S
LEWES DE         0042   64 66  170/  5/  7 1028.2R
15NM E FENWICK I 0050   67 68  160/  4/  4 1029.1R   2/ 9   2/ 9
OCEAN-CITY-INLET 0042   66 68  240/  3/  3 1029.1R
WACHAPREAGUE VA  0042   60 68     CALM     1028.3F
THOMAS POINT MD  0000   68 68  200/  3/  3   N/A
GOOSES REEF MD   0050   69     130/  4/  4 1027.4R
COVE POINT MD    0042   66     190/  2/  3 1028.6R
SOLOMONS ISLAND  0042   64 69  190/  1/  1 1027.6S
BISHOPS HEAD MD  0042   67 68  120/  5/  6 1028.5R
PINEY POINT MD   0030          110/  3/  3   N/A
POTOMAC MD       0050   70     130/  8/ 10 1027.4R
CAMBRIDGE MD     0042   63 67              1028.9R
LEWISETTA VA     0042   62 67  210/  2/  3 1027.9R
RAPPAHANNOCK LGT 0042          110/  6/  6 1028.9R
STINGRAY PT      0050   68     150/  8/ 10 1028.5R
YORK RVR RNG VA  0042   69     160/  6/  7 1028.5R
YORKTOWN VA      0042   66 70  170/  3/  4 1027.7S
JAMESTOWN VA     0050          120/  4/  6   N/A
DOMINION TERM VA 0042   69     100/  5/  8 1028.2R
KIPTOPEKE VA     0042      68  100/  4/  5   N/A
CAPE HENRY VA    0042   68     110/ 10/ 11   N/A
WILLOUBY STN VA  0042   67     120/  6/  6 1028.0S
S CRANEY ISL VA  0042   67     140/  5/  6 1027.8S
CAPE HENRY BUOY  0030      70                N/A     2/ 8
1ST LANDING BUOY 0050   68                 1027.9F
CAPE CHARLES BUO 0021      70                N/A     2/ 8
64NM E OF VA BCH 0050   68 69   70/  4/  4 1028.5R   3/ 8   3/ 8
DUCK PIER NC     0042   69 70   70/  7/  8 1027.6R
44100 DUCK FRF   0035      71                N/A     2/ 8
44056 DUCK FRF   0100      70                N/A     2/ 8
OREGON INLET NC  0042   69 71   50/  6/  8 1027.7R
HATTERAS NC      0042   69 73   40/  5/  6 1027.5R
DIAMOND SHLS NC  0050   73 81  350/  8/ 10 1027.1R   3/ 8   3/ 8
CAPE LOOKOUT NC  0000   73      60/  9/ 11 1026.8R
$$



USA.gov is the U.S. government's official web portal to all federal, state and local government web resources and services.